This demonstration page uses our WeatherBlox Daily Observations layout. Learn more.

Left ArrowRight Arrow

Hourly Observations for May 26, 2020

Temp ( °F °C ) Dew Point ( °F °C ) Humidity (%) Winds ( mph kmh ) Pressure ( in mb ) Visibility ( mi km ) Precip ( " mm )
12:53 am 00:53 Clear 73 22.8 61 16.1 66 66 N 5 7 29.83 1010 10 16 0.00 0.00
1:53 am 01:53 Clear 73 22.8 59 15 62 62 N 5 7 29.84 1011 10 16 0.00 0.00
2:53 am 02:53 Clear 72 22.2 59 15 64 64 NNW 6 9 29.84 1011 10 16 0.00 0.00
3:53 am 03:53 Clear 71 21.7 58 14.4 63 63 N 5 7 29.84 1010 10 16 0.00 0.00
4:53 am 04:53 Clear 66 18.9 59 15 78 78 Calm 29.85 1011 10 16 0.00 0.00
5:53 am 05:53 Sunny 65 18.3 59 15 81 81 NE 3 6 29.86 1011 10 16 0.00 0.00
6:53 am 06:53 Sunny 68 20 59 15 73 73 Calm 29.86 1011 10 16 0.00 0.00
7:53 am 07:53 Sunny 72 22.2 62 16.7 71 71 Calm 29.87 1011 10 16 0.00 0.00
8:53 am 08:53 Sunny 81 27.2 60 15.6 49 49 NNW 5 7 29.86 1011 10 16 0.00 0.00
9:53 am 09:53 Sunny 85 29.4 58 14.4 40 40 N 6 9 29.86 1011 10 16 0.00 0.00
10:53 am 10:53 Sunny 89 31.7 58 14.4 35 35 N 8 13 29.86 1011 N/A 0.00 0.00
11:53 am 11:53 Sunny 91 32.8 58 14.4 33 33 undefined N/A 29.84 1011 10 16 0.00 0.00
12:53 pm 12:53 Sunny 92 33.3 58 14.4 32 32 NE 7 11 29.83 1010 10 16 0.00 0.00
1:53 pm 13:53 Sunny 94 34.4 55 12.8 27 27 Calm 29.82 1010 10 16 0.00 0.00
2:53 pm 14:53 Sunny 95 35 58 14.4 29 29 ESE 7 11 29.81 1010 10 16 0.00 0.00
3:53 pm 15:53 Sunny 94 34.4 59 15 31 31 S 10 17 29.80 1009 10 16 0.00 0.00
4:53 pm 16:53 Sunny 93 33.9 57 13.9 30 30 S 9 15 29.80 1009 10 16 0.00 0.00
5:53 pm 17:53 Sunny 92 33.3 59 15 33 33 S 6 9 29.78 1009 10 16 0.00 0.00
6:53 pm 18:53 Sunny 94 34.4 61 16.1 33 33 Calm 29.77 1008 10 16 0.00 0.00
7:53 pm 19:53 Sunny 92 33.3 66 18.9 43 43 Calm 29.77 1008 10 16 0.00 0.00
8:53 pm 20:53 Clear 84 28.9 66 18.9 55 55 Calm 29.79 1009 10 16 0.00 0.00
9:53 pm 21:53 Clear 85 29.4 59 15 42 42 NNW 5 7 29.81 1009 10 16 0.00 0.00
10:53 pm 22:53 Clear 80 26.7 65 18.3 60 60 Calm 29.83 1010 10 16 0.00 0.00
11:53 pm 23:53 Clear 77 25 61 16.1 58 58 W 5 7 29.83 1010 10 16 0.00 0.00

Powered by AerisWeather